Location: Caltech
(34.1382°N, 118.1253°W)
Time: 08:31:38
(UTC-08:00)

Cosmos 1980 Rocket - Visible Passes

Search period start: 02 March 2015 00:00
Search period end: 12 March 2015 01:00
Orbit: 830 x 850 km, 71.0° (Epoch: 01 March)

Date Brightness Start Highest point End Pass type
(mag) Time Alt. Az. Time Alt. Az. Time Alt. Az.
07 Mar 4.6 20:53:05 10° N 20:53:41 13° N 20:53:41 13° N visible
08 Mar 4.3 21:37:30 10° N 21:38:46 17° N 21:38:46 17° N visible
09 Mar 4.0 21:21:56 10° N 21:23:55 21° N 21:23:55 21° N visible
10 Mar 3.6 21:06:23 10° N 21:09:08 25° NNE 21:09:08 25° NNE visible
10 Mar 5.1 22:50:43 10° NW 22:50:56 11° NW 22:50:56 11° NW visible
11 Mar 3.3 20:50:49 10° N 20:54:25 29° NNE 20:54:25 29° NNE visible
11 Mar 4.8 22:35:00 10° NW 22:36:13 15° NW 22:36:13 15° NW visible
